Regional Weather Roundup
Issued by NWS Newport/Morehead, NC

Current Version | Previous Version | Text Only | Print | Product List | Glossary On
Versions: 1 2 3 4 5 6 7 8 9 10 11 12 13 14 15 16 17 18 19 20 21 22 23 24 25 26 27 28 29 30 31 32 33 34 35 36 37 38 39 40 41 42 43 44 45 46 47 48 49 50
000
ASUS42 KMHX 141813
RWRMHX
WEATHER ROUNDUP FOR EASTERN NORTH CAROLINA
NATIONAL WEATHER SERVICE NEWPORT/MOREHEAD CITY NC
100 PM EST THU DEC 14 2017

NOTE: "FAIR" INDICATES FEW OR NO CLOUDS BELOW 12,000 FEET
WITH NO SIGNIFICANT WEATHER AND/OR OBSTRUCTIONS TO VISIBILITY

NCZ015>017-031-032-045>047-102-103-141900-
NORTH COAST

CITY           SKY/WX    TMP DP  RH WIND       PRES   REMARKS
EDENTON        SUNNY     57  29  33 W9        29.83S
ELIZABETH CITY SUNNY     57  31  37 W17G23    29.82R
KITTY HAWK     CLEAR     49  30  48 CALM      29.81S
MANTEO         SUNNY     51  30  44 NW8       29.83S

$$

NCZ045>047-081-094-103-104-141900-
CENTRAL COAST

CITY           SKY/WX    TMP DP  RH WIND       PRES   REMARKS
FRISCO         SUNNY     52  37  56 W9        29.86R

$$

NCZ095-097-098-100-101-141900-
SOUTHERN COAST

CITY           SKY/WX    TMP DP  RH WIND       PRES   REMARKS
BEAUFORT       SUNNY     54  36  50 W12       29.85F
CEDAR ISLAND   NOT AVBL
JACKSONVILLE   MOSUNNY   58  30  34 SW10      29.85F
PINEY ISLAND     N/A    N/A N/A N/A W10       29.85S
WILMINGTON     SUNNY     60  30  32 W9        29.86F


$$

NCZ011>013-027>030-043-044-078>080-089-090>093-098-141900-
COASTAL PLAIN

CITY           SKY/WX    TMP DP  RH WIND       PRES   REMARKS
AHOSKIE        SUNNY     54  27  35 NW5       29.83S
CLINTON        SUNNY     55  31  39 W3        29.86F
ELIZABETHTOWN  NOT AVBL
GOLDSBORO      SUNNY     58  26  30 W9        29.84S
GREENVILLE     SUNNY     54  28  37 NW8         N/A
HAVELOCK       SUNNY     58  32  37 W10       29.86F
KENANSVILLE    SUNNY     55  28  35 NW7       29.86S
KINSTON        SUNNY     57  27  30 W7        29.86F
NEW BERN       SUNNY     57  31  37 W8        29.85F
RICHLANDS      SUNNY     59  31  34 VRB6      29.86F
ROCKY MOUNT    SUNNY     56  26  31 NW10      29.85S
WASHINGTON     SUNNY     55  26  32 W9        29.85S
WHITEVILLE     SUNNY     57  31  36 SW8       29.87F

$$

AMZ130-135-150-152-154-156-158-170-250-252-270-ANZ085-086-088-633-658-670-141900-
MARINE OBSERVATIONS

STATION/POSITION TIME  TEMP    WIND        PRES    WAVE   SWELL
                       AIR SEA DIR/SP/G            HT/PER HT/PER
                 (UTC) (F)     (DEG/KT/KT) (MB)    (FT/S) (FT/S)
CHESAPEAKE LIGHT NOT AVBL
64 E VA BEACH    1750   53 61  290/ 23/ 29 1008.7    7/ 6   2/ 9
DUCK             1742   49 53  250/ 10/ 13 1009.2
2 E DUCK         1730      55                N/A     1/ 7
OREGON INLET     1742   52 41  250/  5/  7 1009.9
13E OREGON INLT  1748      62                N/A     4/ 9   3/ 9
HATTERAS CG      1742   49 50  260/ 10/ 14 1010.6
DIAMOND BUOY     1750   57 73  260/ 16/ 21 1010.7    9/ 9   7/ 9
CAPE LOOKOUT     1800          250/ 11/ 13 1011.3
BEAUFORT LAB     1742   54 50  240/  5/  8 1010.9
30 SE NEW RVR IN 1708   54 65  260/ 12/ 17 1011.7
30 SE NEW RVR IN 1730      65                N/A     6/ 8
27 SE WRIGHTSVLE 1708   53 65  260/ 12/ 17 1011.9
5 SE WRIGHTSVLE  1708   53 56  260/  8/ 12 1011.7
225 S CAPE HAT   1750   69 74  260/ 21/ 27 1013.1    9/ 9   2/19
41 SE CHARLESTON 1750      73  240/ 16/ 19 1013.2    6/ 7

$$




USA.gov is the U.S. government's official web portal to all federal, state and local government web resources and services.